Location: Les Martinières
(47.2667°N, 1.4410°E)
Time: 22:45:01
(UTC+00:00)

Cosmos 1470 - Pass Details

Date: 15 May 2026
Orbit: 420 x 431 km, 82.5° (Epoch: 6 June)

Event Time Altitude Azimuth Distance (km) Brightness Sun altitude
Rises 22:43:30 0° 352° (N) 2,386 7.5 -22.0°
Reaches altitude 10° 22:45:33 10° 355° (N) 1,515 6.2 -22.1°
Enters shadow 22:48:13 53° 18° (NNE) 529 2.9 -22.2°
